Waarnemingen

Advertentie
Mijn weer
Zwiesel, Duitsland (10796): temperatuur & dauwpunt: 16.01.2018 21:00:00 - 22.01.2018 21:00:00 (CET)Zwiesel, Duitsland (10796): temperatuur 5cm & temperatuur -5cm: 16.01.2018 21:00:00 - 22.01.2018 21:00:00 (CET)Zwiesel, Duitsland (10796): temperatuur -20cm & temperatuur -100cm: 16.01.2018 21:00:00 - 22.01.2018 21:00:00 (CET)Zwiesel, Duitsland (10796): windsnelheid & windstoten: 16.01.2018 21:00:00 - 22.01.2018 21:00:00 (CET)Zwiesel, Duitsland (10796): windrichting: 16.01.2018 21:00:00 - 22.01.2018 21:00:00 (CET)Zwiesel, Duitsland (10796): luchtdruk: 16.01.2018 21:00:00 - 22.01.2018 21:00:00 (CET)Zwiesel, Duitsland (10796): zicht: 16.01.2018 21:00:00 - 22.01.2018 21:00:00 (CET)Zwiesel, Duitsland (10796): Zonneschijnduur: 16.01.2018 21:00:00 - 22.01.2018 21:00:00 (CET)Zwiesel, Duitsland (10796): neerslag: 16.01.2018 21:00:00 - 22.01.2018 21:00:00 (CET)
Datum & Tijd tt [°C] td [°C] tt 5cm [°C] tt -5cm [°C] tt -20cm [°C] tt -100cm [°C] ff [km/u] ff [kn] fx [km/u] fx [kn] dd ppp [hPa] vv [km] sd [min] rr [mm]
22.01.2018 21:00:00 -0,9 -1,7 0,1 0,3 0,3 3,2 3 2 5 3 ZZW 1014,6 4,0 0 0,0
22.01.2018 20:00:00 -1,0 -1,8 0,1 0,3 0,3 3,2 0 0 0 0 N 1013,6 7 0 0,0
22.01.2018 19:00:00 -1,1 -1,9 0,1 0,3 0,3 3,2 0 0 5 3 N 1013,3 8 0 0,0
22.01.2018 18:00:00 -1,2 -2,1 0,1 0,3 0,3 3,2 0 0 3 2 N 1012,7 4,8 0 0,1
22.01.2018 17:00:00 -1,0 -2,0 0,1 0,3 0,3 3,2 3 2 4 2 ZZW 1012,2 8 0 0,0
22.01.2018 16:00:00 -1,1 -2,3 0,1 0,3 0,3 3,2 0 0 4 2 N 1012,2 8 0 0,4
22.01.2018 15:00:00 -1,1 -2,6 0,1 0,3 0,3 3,2 0 0 1 1 N 1011,8 3,0 0 0,1
22.01.2018 14:00:00 -1,2 -2,8 0,1 0,3 0,3 3,2 3 2 12 6 WZW 1012,0 4,0 0 1,0
22.01.2018 13:00:00 -1,0 -3,3 0,1 0,3 0,3 3,2 6 4 13 7 Z 1012,5 7 0 0,1
22.01.2018 12:00:00 -1,5 -4,0 0,1 0,3 0,3 3,2 4 2 10 6 WZW 1013,5 6 0 0,1
22.01.2018 11:00:00 -2,1 -4,8 0,1 0,3 0,3 3,2 6 3 10 6 ZO 1014,8 12 0 0,0
22.01.2018 10:00:00 -2,6 -4,7 0,1 0,3 0,3 3,2 6 3 11 6 ZZO 1015,0 25 0 0,0
22.01.2018 09:00:00 -3,8 -5,3 0,1 0,3 0,3 3,2 0 0 4 2 N 1015,6 8 0 0,0
22.01.2018 08:00:00 -4,4 -5,4 0,1 0,3 0,3 3,2 0 0 1 1 N 1016,2 4,6 0 0,1
22.01.2018 07:00:00 -5,0 -6,0 0,1 0,3 0,3 3,2 0 0 5 3 N 1016,4 8 0 0,0
22.01.2018 06:00:00 -5,3 -6,4 0,1 0,3 0,3 3,2 3 2 7 4 NNW 1017,2 15 0 0,0
22.01.2018 05:00:00 -5,6 -6,8 0,1 0,3 0,3 3,2 5 3 6 3 O 1018,0 23 0 0,0
22.01.2018 04:00:00 -5,9 -6,9 0,1 0,3 0,3 3,2 0 0 6 3 N 1018,5 17 0 0,0
22.01.2018 03:00:00 -6,5 -7,6 0,1 0,3 0,3 3,2 0 0 5 3 N 1019,7 19 0 0,0
22.01.2018 02:00:00 -6,2 -7,1 0,1 0,3 0,3 3,2 3 2 4 2 O 1020,1 14 0 0,0
22.01.2018 01:00:00 -5,4 -6,0 0,1 0,3 0,3 3,2 0 0 5 3 N 1020,8 7 0 0,0
22.01.2018 00:00:00 -5,1 -6,2 0,1 0,3 0,3 3,2 3 2 4 2 N 1021,1 9 0 0,0
21.01.2018 23:00:00 -5,9 -7,0 0,1 0,3 0,3 3,2 4 2 9 5 OZO 1021,8 7 0 0,0
21.01.2018 22:00:00 -4,9 -5,3 0,1 0,3 0,3 3,2 1 0 5 3 Z 1022,0 3,8 0 0,0
21.01.2018 21:00:00 -4,3 -5,1 0,0 0,3 0,3 3,2 2 1 10 6 NW 1021,4 7 0 0,0
21.01.2018 20:00:00 -2,4 -4,3 0,1 0,3 0,3 3,2 4 2 9 5 N 1020,4 22 0 0,0
21.01.2018 19:00:00 -2,0 -2,9 0,1 0,3 0,3 3,2 0 0 7 4 N 1020,0 7 0 0,0
21.01.2018 18:00:00 -1,0 -3,1 0,1 0,3 0,3 3,2 4 2 7 4 NNO 1018,9 33 0 0,1
21.01.2018 17:00:00 -1,2 -2,5 0,1 0,3 0,3 3,2 0 0 11 6 N 1018,2 2,3 0 0,1
21.01.2018 16:00:00 -0,8 -3,3 0,1 0,3 0,3 3,2 5 3 14 8 N 1017,0 15 1 0,1
21.01.2018 15:00:00 -0,3 -3,1 0,1 0,3 0,3 3,2 9 5 24 13 NNW 1015,6 17 0 0,0
21.01.2018 14:00:00 -0,4 -3,1 0,1 0,3 0,3 3,2 13 7 28 15 NNW 1013,7 8 0 0,0
21.01.2018 13:00:00 -0,1 -3,1 0,1 0,3 0,3 3,2 6 3 21 11 NNW 1012,3 21 0 0,0
21.01.2018 12:00:00 0,2 -1,6 0,1 0,3 0,3 3,2 0 0 8 4 N 1010,7 3,6 0 0,4
21.01.2018 11:00:00 -0,1 -1,4 0,1 0,3 0,3 3,2 6 3 9 5 WZW 1009,7 1,8 0 0,8
21.01.2018 10:00:00 -0,2 -1,2 0,1 0,3 0,3 3,2 6 3 13 7 WZW 1008,3 3,0 0 0,4
21.01.2018 09:00:00 -0,6 -1,3 0,1 0,3 0,3 3,2 5 3 9 5 ZW 1007,5 1,3 0 0,6
21.01.2018 08:00:00 -0,8 -1,3 0,1 0,3 0,3 3,2 5 3 7 4 ZZW 1006,4 2,2 0 0,2
21.01.2018 07:00:00 -1,4 -2,0 0,1 0,3 0,3 3,2 0 0 3 2 N 1005,9 4,5 0 0,1
21.01.2018 06:00:00 -1,4 -1,9 0,1 0,3 0,3 3,2 1 0 3 2 ZO 1004,8 3,2 0 0,1
21.01.2018 05:00:00 -1,1 -1,6 0,1 0,3 0,3 3,2 2 1 4 2 ZZO 1003,6 4,9 0 0,2
21.01.2018 04:00:00 -1,0 -1,7 0,1 0,3 0,3 3,2 0 0 6 4 N 1002,6 7 0 0,0
21.01.2018 03:00:00 -1,0 -1,9 0,1 0,3 0,3 3,2 3 1 5 3 NNO 1001,6 9 0 0,1
21.01.2018 02:00:00 -0,9 -1,6 0,1 0,3 0,3 3,2 3 1 6 3 NO 1000,6 4,1 0 0,3
21.01.2018 01:00:00 -0,9 -1,3 0,1 0,3 0,3 3,2 2 1 4 2 N 1000,5 1,4 0 0,4
21.01.2018 00:00:00 -0,9 -1,2 0,1 0,3 0,2 3,2 3 2 5 3 NNW 1000,6 1,8 0 0,6
20.01.2018 23:00:00 -0,9 -1,4 0,1 0,3 0,3 3,2 3 1 4 2 N 1001,6 1,5 0 0,5
20.01.2018 22:00:00 -0,5 -1,4 0,1 0,3 0,2 3,2 2 1 8 4 ZZO 1002,3 1,9 0 0,2
20.01.2018 21:00:00 -0,8 -1,7 0,1 0,3 0,2 3,2 3 2 10 5 N 1002,0 6 0 0,0
20.01.2018 20:00:00 -0,4 -1,3 0,1 0,3 0,2 3,2 5 3 16 9 ZO 1003,2 3,9 0 0,2
20.01.2018 19:00:00 -0,2 -1,3 0,1 0,3 0,2 3,2 7 4 12 6 ZO 1004,4 16 0 0,0
20.01.2018 18:00:00 -0,5 -1,5 0,1 0,3 0,2 3,2 6 3 11 6 OZO 1005,8 9 0 0,0
20.01.2018 17:00:00 -0,6 -1,6 0,1 0,3 0,2 3,2 7 4 9 5 OZO 1007,1 4,5 0 0,2
20.01.2018 16:00:00 -0,4 -1,9 0,1 0,3 0,2 3,2 5 3 12 6 ZZO 1008,3 10 0 0,0
20.01.2018 15:00:00 -0,1 -2,2 0,1 0,3 0,2 3,2 5 3 13 7 Z 1009,2 27 0 0,0
20.01.2018 14:00:00 -0,1 -1,5 0,1 0,3 0,2 3,2 8 4 16 8 ZW 1009,9 3,7 0 0,2
20.01.2018 13:00:00 -0,1 -1,8 0,1 0,3 0,2 3,2 10 5 22 12 ZW 1011,0 19 0 0,4
20.01.2018 12:00:00 0,0 -1,5 0,1 0,3 0,2 3,2 7 4 12 6 ZW 1011,8 10 0 1,0
20.01.2018 11:00:00 -0,3 -1,3 0,1 0,3 0,2 3,2 6 3 11 6 Z 1012,2 1,9 0 0,7
20.01.2018 10:00:00 -0,8 -1,6 0,1 0,3 0,2 3,2 6 3 10 6 ZW 1012,6 1,4 0 1,1
20.01.2018 09:00:00 -1,1 -1,8 0,1 0,3 0,2 3,2 4 2 10 5 Z 1012,7 0,8 0 1,6
20.01.2018 08:00:00 -1,4 -2,1 0,1 0,3 0,2 3,2 5 3 10 5 Z 1013,2 0,8 0 0,5
20.01.2018 07:00:00 -1,1 -2,6 0,1 0,3 0,2 3,2 7 4 13 7 Z 1013,7 3,4 0 0,0
20.01.2018 06:00:00 -1,3 -2,0 0,1 0,3 0,2 3,2 7 4 11 6 ZW 1014,0 3,7 0 0,2
20.01.2018 05:00:00 -1,1 -2,3 0,1 0,3 0,2 3,2 4 2 8 5 ZW 1014,1 26 0 0,0
20.01.2018 04:00:00 -1,8 -2,3 0,1 0,3 0,2 3,2 2 1 6 3 NO 1014,4 9 0 0,0
20.01.2018 03:00:00 -2,1 -2,8 0,1 0,3 0,2 3,2 0 0 7 4 N 1014,2 4,8 0 0,9
20.01.2018 02:00:00 -2,1 -2,6 0,1 0,3 0,2 3,2 1 1 3 2 ZZW 1014,1 0,7 0 1,4
20.01.2018 01:00:00 -2,3 -2,8 0,1 0,3 0,2 3,2 0 0 4 2 N 1013,7 1,6 0 1,2
20.01.2018 00:00:00 -2,5 -3,0 0,1 0,3 0,2 3,2 3 2 6 3 NNO 1013,7 1,5 0 0,0
19.01.2018 23:00:00 -2,9 -3,3 0,1 0,3 0,2 3,2 0 0 6 3 N 1014,1 11 0 0,0
19.01.2018 22:00:00 -3,1 -3,7 0,1 0,3 0,2 3,2 3 1 8 4 NNW 1014,4 2,2 0 0,0
19.01.2018 21:00:00 -2,3 -3,0 0,1 0,3 0,2 3,2 5 3 11 6 ZZO 1014,1 6 0 0,0
19.01.2018 20:00:00 -2,3 -3,2 0,0 0,3 0,2 3,2 3 2 10 6 ZO 1014,0 17 0 0,0
19.01.2018 19:00:00 -1,1 -1,9 0,1 0,3 0,2 3,2 6 3 10 5 OZO 1013,7 18 0 0,0
19.01.2018 18:00:00 0,1 -1,9 0,1 0,3 0,2 3,2 3 1 9 5 WNW 1013,3 34 0 0,0
19.01.2018 17:00:00 0,4 -1,9 0,1 0,3 0,2 3,2 4 2 22 12 ZZW 1012,9 43 0 0,0
19.01.2018 16:00:00 0,8 -2,0 0,1 0,3 0,2 3,3 14 8 29 16 WZW 1012,6 53 0 0,0
19.01.2018 15:00:00 0,6 -1,9 0,1 0,3 0,2 3,3 17 9 35 19 WZW 1012,2 31 0 1,8
19.01.2018 14:00:00 0,9 -2,0 0,1 0,3 0,2 3,3 21 11 33 18 WZW 1011,7 17 21 0,1
19.01.2018 13:00:00 1,6 -2,4 0,1 0,3 0,2 3,3 15 8 32 17 W 1011,4 37 25 0,0
19.01.2018 12:00:00 1,0 -1,8 0,1 0,3 0,2 3,3 19 10 49 26 W 1011,4 16 4 0,0
19.01.2018 11:00:00 0,9 -1,5 0,1 0,3 0,2 3,3 31 17 52 28 W 1010,9 10 12 0,1
19.01.2018 10:00:00 0,6 -0,6 0,1 0,3 0,2 3,3 18 10 39 21 W 1009,7 4,8 0 0,2
19.01.2018 09:00:00 1,0 -1,0 0,1 0,3 0,2 3,3 17 9 30 16 WZW 1008,2 33 0 0,1
19.01.2018 08:00:00 1,0 -0,6 0,1 0,3 0,2 3,3 13 7 19 10 W 1006,9 70 0 0,0
19.01.2018 07:00:00 0,1 -0,4 0,1 0,3 0,2 3,3 4 2 9 5 W 1006,1 15 0 0,8
19.01.2018 06:00:00 0,1 -0,1 0,1 0,3 0,2 3,3 3 1 10 5 WZW 1005,8 0,8 0 4,4
19.01.2018 05:00:00 -0,3 -0,7 0,1 0,3 0,2 3,3 5 3 7 4 N 1005,5 0,4 0 1,5
19.01.2018 04:00:00 0,0 -1,5 0,1 0,3 0,2 3,3 3 2 8 4 O 1005,4 28 0 0,0
19.01.2018 03:00:00 0,2 -1,8 0,1 0,3 0,2 3,3 6 3 12 7 OZO 1005,5 69 0 0,0
19.01.2018 02:00:00 0,9 -2,1 0,1 0,3 0,2 3,3 8 4 18 10 W 1005,4 70 0 0,0
19.01.2018 01:00:00 1,2 -1,9 0,1 0,3 0,2 3,3 10 6 28 15 W 1004,7 70 0 0,0
19.01.2018 00:00:00 2,2 -2,0 0,1 0,3 0,2 3,3 21 11 42 23 W 1005,3 70 0 0,0
18.01.2018 23:00:00 2,6 -1,4 0,1 0,3 0,2 3,3 16 9 44 24 W 1004,5 70 0 0,0
18.01.2018 22:00:00 3,0 -0,4 0,1 0,3 0,2 3,3 13 7 38 20 WNW 1003,9 70 0 0,0
18.01.2018 21:00:00 3,2 0,0 0,1 0,3 0,2 3,3 18 10 55 30 W 1002,8 62 0 0,1
18.01.2018 20:00:00 4,1 0,4 0,1 0,3 0,2 3,3 26 14 44 24 WZW 1001,8 64 0 0,0
18.01.2018 19:00:00 4,0 1,2 0,0 0,3 0,2 3,3 24 13 56 31 WZW 1001,0 70 0 0,0
18.01.2018 18:00:00 3,9 1,5 0,0 0,3 0,2 3,3 26 14 64 35 W 1000,8 70 0 0,4
18.01.2018 17:00:00 4,0 1,8 0,0 0,3 0,2 3,3 25 14 47 26 WZW 1000,3 29 0 0,7
18.01.2018 16:00:00 3,8 1,5 0,0 0,3 0,2 3,3 19 11 45 24 WZW 1000,6 13 0 0,3
18.01.2018 15:00:00 3,3 1,3 0,0 0,3 0,2 3,3 22 12 40 22 WZW 1000,5 32 0 0,5
18.01.2018 14:00:00 1,5 0,3 0,0 0,3 0,2 3,3 9 5 21 11 ZZW 1001,5 10 0 0,6
18.01.2018 13:00:00 0,7 -0,3 0,0 0,3 0,2 3,3 11 6 22 12 Z 1003,1 2,2 0 0,7
18.01.2018 12:00:00 0,2 -0,7 0,1 0,3 0,2 3,3 10 5 22 12 Z 1004,8 2,0 0 1,0
18.01.2018 11:00:00 0,0 -0,8 0,1 0,3 0,2 3,3 10 5 23 12 ZZO 1006,0 1,4 0 1,7
18.01.2018 10:00:00 0,1 -0,8 0,1 0,3 0,2 3,3 7 4 23 13 Z 1007,0 1,6 0 0,7
18.01.2018 09:00:00 -0,3 -1,1 0,1 0,3 0,2 3,3 10 5 19 10 ZZW 1008,3 2,1 0 0,6
18.01.2018 08:00:00 -0,5 -1,2 0,1 0,3 0,2 3,3 8 5 21 11 ZZW 1009,6 2,4 0 0,6
18.01.2018 07:00:00 -0,7 -1,3 0,1 0,3 0,2 3,3 8 4 16 9 Z 1010,5 0,6 0 1,0
18.01.2018 06:00:00 -0,6 -1,9 0,1 0,3 0,2 3,3 10 5 31 17 ZW 1011,6 2,0 0 0,0
18.01.2018 05:00:00 -0,2 -2,7 0,1 0,3 0,2 3,3 16 9 29 15 WZW 1012,1 37 0 0,0
18.01.2018 04:00:00 -0,4 -3,3 0,1 0,3 0,2 3,3 12 6 21 11 ZW 1012,4 39 0 0,0
18.01.2018 03:00:00 -0,1 -3,9 0,1 0,3 0,2 3,3 14 8 31 17 W 1012,8 47 0 0,0
18.01.2018 02:00:00 -0,1 -3,6 0,1 0,3 0,2 3,3 16 9 31 17 W 1012,4 38 0 0,0
18.01.2018 01:00:00 -0,2 -3,6 0,1 0,3 0,2 3,3 18 10 41 22 W 1012,1 37 0 0,0
18.01.2018 00:00:00 -0,3 -4,1 0,1 0,3 0,2 3,3 26 14 52 28 W 1011,6 28 0 0,0
17.01.2018 23:00:00 -0,1 -3,8 0,0 0,3 0,2 3,3 24 13 67 36 W 1010,7 47 0 0,3
17.01.2018 22:00:00 -0,6 -2,3 0,1 0,3 0,2 3,3 22 12 38 20 W 1009,3 1,1 0 1,0
17.01.2018 21:00:00 -0,8 -2,6 0,1 0,3 0,2 3,3 17 9 33 18 W 1008,5 0,8 0 0,0
17.01.2018 20:00:00 -0,5 -3,7 0,0 0,3 0,2 3,3 29 15 54 29 WNW 1008,3 45 0 0,7
17.01.2018 19:00:00 -1,7 -2,5 0,1 0,3 0,2 3,3 8 4 28 15 WZW 1007,9 1,5 0 0,7
17.01.2018 18:00:00 -0,7 -4,5 0,1 0,3 0,2 3,3 19 10 39 21 WNW 1007,4 70 0 0,0
17.01.2018 17:00:00 -0,7 -4,6 0,1 0,3 0,2 3,3 21 12 48 26 WNW 1006,9 66 0 0,0
17.01.2018 16:00:00 -0,9 -4,2 0,1 0,3 0,2 3,3 22 12 55 30 W 1005,4 6 0 0,0
17.01.2018 15:00:00 -1,1 -4,6 0,1 0,3 0,2 3,3 28 15 47 25 W 1004,4 18 0 0,0
17.01.2018 14:00:00 -0,8 -4,2 0,1 0,3 0,2 3,3 23 13 52 28 W 1003,6 26 0 0,0
17.01.2018 13:00:00 -0,8 -3,6 0,1 0,3 0,2 3,3 24 13 55 30 W 1002,6 26 0 1,1
17.01.2018 12:00:00 -1,0 -1,9 0,1 0,3 0,2 3,3 16 9 45 24 W 1001,5 5 0 0,5
17.01.2018 11:00:00 0,2 -2,8 0,1 0,3 0,2 3,3 21 11 42 23 W 1000,5 27 0 0,0
17.01.2018 10:00:00 0,1 -1,3 0,1 0,3 0,2 3,3 28 15 55 30 W 999,3 33 0 0,7
17.01.2018 09:00:00 0,1 -0,5 0,1 0,3 0,2 3,3 20 11 30 16 W 998,0 5 0 1,2
17.01.2018 08:00:00 0,4 -0,8 0,1 0,3 0,2 3,3 9 5 22 12 WZW 997,1 0,6 0 0,4
17.01.2018 07:00:00 0,2 -0,5 0,1 0,3 0,2 3,3 6 3 16 9 ZW 997,0 0,9 0 0,4
17.01.2018 06:00:00 0,1 -0,8 0,1 0,3 0,2 3,3 6 3 11 6 Z 996,9 2,1 0 0,4
17.01.2018 05:00:00 -0,1 -0,8 0,1 0,3 0,2 3,3 4 2 16 9 ZZW 997,7 3,3 0 0,3
17.01.2018 04:00:00 0,6 -2,0 0,1 0,3 0,2 3,3 13 7 27 14 W 998,1 13 0 0,0
17.01.2018 03:00:00 1,0 -2,4 0,1 0,3 0,2 3,3 17 9 37 20 WZW 998,4 70 0 0,0
17.01.2018 02:00:00 1,3 -2,1 0,1 0,3 0,2 3,3 13 7 28 15 W 998,3 70 0 0,0
17.01.2018 01:00:00 1,5 -1,9 0,1 0,3 0,2 3,3 15 8 31 17 W 998,6 70 0 0,0
17.01.2018 00:00:00 1,9 -1,9 0,1 0,3 0,2 3,3 9 5 25 14 W 998,6 70 0 0,0
16.01.2018 23:00:00 2,0 -1,0 0,1 0,3 0,2 3,3 17 9 30 16 WZW 998,8 69 0 0,0
16.01.2018 22:00:00 2,1 -0,9 0,1 0,3 0,2 3,3 9 5 29 16 ZW 998,7 70 0 0,0
16.01.2018 21:00:00 2,1 -1,1 0,1 0,3 0,2 3,3 11 6 28 15 WZW 999,3 70 0 0,0

tt = temperatuur
td = dauwpunt
tt 5cm = temperatuur 5cm
tt -5cm = temperatuur -5cm
tt -20cm = temperatuur -20cm
tt -100cm = temperatuur -100cm
ff = windsnelheid
fx = windstoten
dd = windrichting
ppp = luchtdruk
vv = zicht
sd = Zonneschijnduur
rr = neerslag

Weerstations in de omgeving